[[{"header":{"parameterUnit":"m.s-1","parameterCategory":1,"la1":30.2991,"la2":30.254,"lo1":-89.0895,"lo2":-89.0444,"dy":0.0017,"dx":0.0017,"nx":28,"ny":28,"refTime":"2024-07-28T21:00:00:Z","depth":0,"parameterNumber":2,"parameterNumberName":"U-component_of_WINDS"},"data":[0,0,0,0,0,0,0,0,0,0,0,0,0,0,0,0,0,0,0,0,0,0,0,0,0,0,0,0,0,0,0,0,0,0,0,0,0,0,0,0,0,0,0,0,0,0,0,0,0,0,0,0,0,0,0,0,0,0,3.5942,3.5943,0,3.6036,3.6038,3.6039,3.5979,3.5976,3.5973,3.5971,3.6074,3.6079,3.6085,0,0,0,0,0,0,0,0,0,0,0,0,0,3.5717,3.5721,3.5942,3.5943,3.5944,3.6036,3.6038,3.6039,3.5979,3.5976,3.5973,3.5969,3.6072,3.6079,3.6085,0,0,0,0,0,0,0,0,0,0,0,0,0,3.5814,3.5723,3.5942,3.5925,3.5925,3.6036,3.6038,3.6039,3.598,3.5976,3.5972,3.5968,3.607,3.6078,3.6086,3.622,0,0,3.6111,3.6114,0,0,0,0,0,0,0,0,3.5808,3.5822,3.5927,3.5927,3.5926,3.5991,3.5996,3.61,3.5981,3.5959,3.5971,3.5966,3.605,3.606,3.6087,3.6225,3.6229,3.6111,3.6116,3.612,3.6122,0,0,0,0,0,0,0,3.5802,3.5818,3.5979,3.5928,3.5928,3.5916,3.5925,3.6016,3.6028,3.5961,3.5957,3.5968,3.605,3.6079,3.6089,3.6231,3.6111,3.6118,3.6123,3.6126,3.6486,3.649,0,0,0,0,0,0,3.5795,3.5812,3.5976,3.5982,3.5855,3.5923,3.5933,3.5975,3.6026,3.603,3.5972,3.5965,3.6068,3.608,3.6092,3.6253,3.612,3.6127,3.6132,3.6481,3.6487,3.6492,0,0,0,0,0,0,3.5791,3.581,3.5973,3.5896,3.5916,3.5932,3.5979,3.5979,3.6009,3.6035,3.6037,3.6,3.6065,3.6081,3.6189,3.6256,3.6131,3.6138,3.6475,3.6483,3.6489,3.6576,0,0,0,0,0,0,3.5784,3.5809,3.5858,3.5898,3.592,3.6065,3.5983,3.5984,3.6022,3.6014,3.6061,3.6065,3.6063,3.6177,3.6197,3.6265,3.6144,3.6469,3.6479,3.6487,3.6568,3.6586,3.6601,0,0,0,0,0,3.5777,3.588,3.5861,3.5881,3.5982,3.6069,3.6082,3.6075,3.6028,3.6079,3.6096,3.6064,3.6246,3.6189,3.621,3.6282,3.6465,3.6476,3.6486,3.656,3.6582,3.6601,0,0,0,0,0,0,3.585,3.5885,3.5864,3.5983,3.6024,3.6059,3.6123,3.6099,3.6155,3.6146,3.6137,3.6148,3.6261,3.6282,3.6218,3.6416,3.6348,3.6364,3.6397,3.6418,3.6434,3.6427,3.6151,0,0,0,0,0,3.588,3.5946,3.5974,3.6076,3.6097,3.6107,3.6145,3.6136,3.6178,3.6196,3.622,3.6265,3.6332,3.6376,3.6439,3.6571,3.6581,3.6631,3.6648,3.6661,3.6675,3.6747,3.677,3.6527,3.6527,3.6526,0,0,3.5943,3.597,3.6012,3.6092,3.6122,3.6193,3.6122,3.6199,3.6252,3.6208,3.631,3.6331,3.638,3.65,3.6554,3.6521,3.6745,3.6675,3.6686,3.6692,3.676,3.6783,3.6804,3.6534,3.6533,3.6531,0,0,3.6093,3.612,3.6208,3.624,3.6286,3.6292,3.6314,3.6353,3.6364,3.6467,3.6435,3.65,3.6615,3.6651,3.6685,3.6851,3.6825,3.6873,3.696,3.703,3.7049,3.7066,3.7126,3.7148,3.6886,3.6886,3.6886,0,3.6165,3.6268,3.6257,3.6337,3.6374,3.6336,3.6427,3.6459,3.6525,3.6552,3.6514,3.6659,3.6689,3.6818,3.6858,3.6887,3.6912,3.6867,3.7047,3.7064,3.708,3.7137,3.7159,3.6892,3.6891,3.6891,3.689,0,3.6356,3.6428,3.6495,3.6557,3.6601,3.6687,3.6691,3.6738,3.6726,3.6737,3.6843,3.6878,3.6948,3.6978,3.6968,3.7107,3.7085,3.7047,3.6979,3.7109,3.7162,3.7184,3.69,3.6898,3.6896,3.6895,0,0,3.6553,3.6609,3.6634,3.6662,3.6711,3.6768,3.6853,3.692,3.696,3.7008,3.708,3.7179,3.7145,3.7183,3.7177,3.7239,3.737,3.7195,3.7196,3.7226,3.7525,3.7552,3.7578,3.7353,3.7357,3.736,3.7521,0,3.6707,3.6852,3.6845,3.6982,3.705,3.7016,3.709,3.713,3.7143,3.7204,3.7219,3.729,3.7239,3.7262,3.7322,3.7341,3.743,3.7329,3.7421,3.7424,3.7409,3.7605,3.7634,3.7784,3.7542,3.7545,3.7548,0,3.6904,3.6956,3.7099,3.7139,3.7167,3.7234,3.7295,3.7353,3.7399,3.7404,3.7447,3.7432,3.752,3.7451,3.7573,3.7505,3.7543,3.7558,3.7564,3.7572,3.7493,3.7618,3.7832,3.7854,3.7581,3.7578,3.7576,0,3.7034,3.714,3.724,3.7265,3.7314,3.7362,3.7385,3.7426,3.7467,3.7522,3.7549,3.7614,3.765,3.7702,3.7705,3.7654,3.7829,3.776,3.7837,3.7837,3.7875,3.7872,3.8097,3.79,3.79,3.7899,3.7899,0,3.7205,3.7294,3.7299,3.736,3.746,3.7453,3.7553,3.7571,3.7608,3.7674,3.765,3.7713,3.7714,3.7779,3.7783,3.7884,3.7901,3.7909,3.7908,3.791,3.7909,3.7934,3.7923,3.7905,3.7904,3.7903,3.7902,0,3.7366,3.7373,3.7479,3.7517,3.7529,3.7601,3.7634,3.7694,3.7705,3.7789,3.7808,3.7827,3.7902,3.7911,3.7999,3.8002,3.8124,3.8113,3.8108,3.8106,3.8183,3.8175,3.8431,3.8464,3.8246,3.8248,3.825,0,3.7474,3.7542,3.7587,3.7628,3.7654,3.7721,3.7763,3.776,3.7805,3.7862,3.7915,3.7988,3.8045,3.8168,3.8191,3.8259,3.8249,3.8334,3.8259,3.8259,3.825,3.8245,3.8252,3.8348,3.835,3.8352,3.8354,0,3.7666,3.7666,3.7725,3.7787,3.7837,3.7886,3.7932,3.7968,3.7971,3.8023,3.8099,3.8144,3.8233,3.8306,3.8373,3.84,3.8378,3.8378,3.8399,3.8401,3.8395,3.8399,3.8147,3.8371,3.837,3.8368,3.8367,3.8367,3.7804,3.7862,3.7903,3.7971,3.8005,3.8049,3.8106,3.8125,3.8187,3.8259,3.8254,3.8338,3.8384,3.8471,3.8503,3.857,3.8542,3.8573,3.8581,3.8588,3.8596,3.8385,3.8582,3.8582,3.8581,3.8581,3.8581,0,3.7993,3.8018,3.8081,3.8145,3.8199,3.8173,3.8223,3.827,3.8344,3.8387,3.8444,3.8532,3.8603,3.8632,3.8702,3.875,3.8742,3.8769,3.8765,3.8771,3.8617,3.8591,3.8774,3.8774,3.8774,3.8774,3.8774,3.8774,3.8098,3.8196,3.8202,3.8318,3.8343,3.8423,3.8454,3.8495,3.8529,3.8628,3.8686,3.8704,3.8742,3.8815,3.8879,3.8886,3.8913,3.8944,3.8946,3.8802,3.8782,3.8763,3.8739,3.895,3.895,3.9095,3.9096,3.9097]},{"header":{"parameterUnit":"m.s-1","parameterCategory":1,"la1":30.2991,"la2":30.254,"lo1":-89.0895,"lo2":-89.0444,"dy":0.0017,"dx":0.0017,"nx":28,"ny":28,"refTime":"2024-07-28T21:00:00:Z","depth":0,"parameterNumber":3,"parameterNumberName":"V-component_of_WINDS"},"data":[0,0,0,0,0,0,0,0,0,0,0,0,0,0,0,0,0,0,0,0,0,0,0,0,0,0,0,0,0,0,0,0,0,0,0,0,0,0,0,0,0,0,0,0,0,0,0,0,0,0,0,0,0,0,0,0,0,0,3.6418,3.642,0,3.6616,3.6618,3.662,3.6666,3.6665,3.6663,3.6662,3.686,3.6866,3.6873,0,0,0,0,0,0,0,0,0,0,0,0,0,3.607,3.6076,3.6417,3.642,3.6422,3.6615,3.6618,3.6621,3.6666,3.6665,3.6663,3.6662,3.6858,3.6866,3.6873,0,0,0,0,0,0,0,0,0,0,0,0,0,3.6239,3.6078,3.6417,3.6468,3.6475,3.6615,3.6618,3.6622,3.6667,3.6665,3.6663,3.6661,3.6855,3.6865,3.6874,3.6975,0,0,3.6904,3.6909,0,0,0,0,0,0,0,0,3.623,3.6252,3.6458,3.6465,3.6473,3.6614,3.6568,3.674,3.6667,3.6594,3.6662,3.666,3.6779,3.6795,3.6837,3.6985,3.6993,3.6905,3.6911,3.6915,3.6918,0,0,0,0,0,0,0,3.6218,3.6244,3.6496,3.6461,3.647,3.6479,3.6501,3.6601,3.6695,3.66,3.6604,3.6627,3.6783,3.6827,3.6842,3.6996,3.6905,3.6914,3.692,3.6924,3.7231,3.7233,0,0,0,0,0,0,3.6198,3.6234,3.6489,3.6502,3.6344,3.6487,3.6511,3.6571,3.6695,3.6712,3.6628,3.6628,3.6812,3.683,3.6849,3.6972,3.6915,3.6924,3.693,3.7229,3.7231,3.7234,0,0,0,0,0,0,3.6191,3.6221,3.6481,3.6369,3.6403,3.6495,3.6561,3.6576,3.662,3.6716,3.6732,3.6657,3.6811,3.6835,3.6943,3.698,3.6929,3.6938,3.7226,3.7229,3.7233,3.7221,0,0,0,0,0,0,3.618,3.6218,3.6259,3.637,3.6409,3.6575,3.6564,3.6581,3.6638,3.6639,3.6747,3.6763,3.6811,3.6928,3.6952,3.6992,3.6945,3.7223,3.7227,3.7231,3.7219,3.7224,3.7228,0,0,0,0,0,3.6168,3.6248,3.6261,3.6292,3.6463,3.6577,3.6599,3.6654,3.6641,3.6681,3.6742,3.676,3.6972,3.6939,3.6967,3.701,3.7221,3.7226,3.7231,3.7217,3.7223,3.7228,0,0,0,0,0,0,3.6139,3.6264,3.628,3.6399,3.6477,3.6584,3.6638,3.666,3.6742,3.674,3.6803,3.6827,3.693,3.6981,3.6942,3.7111,3.7095,3.7106,3.7075,3.7082,3.7086,3.7071,3.6954,0,0,0,0,0,3.6147,3.6231,3.6334,3.6429,3.6468,3.6546,3.6597,3.6633,3.6716,3.6749,3.6818,3.6895,3.6979,3.7033,3.7116,3.7226,3.7248,3.7269,3.7274,3.7277,3.7286,3.7343,3.7352,3.7251,3.7251,3.7251,0,0,3.6163,3.6242,3.6291,3.6425,3.649,3.6573,3.6573,3.6662,3.6723,3.6762,3.6867,3.692,3.701,3.7118,3.7169,3.7164,3.7318,3.7284,3.7286,3.7293,3.7349,3.7359,3.7367,3.7254,3.7254,3.7253,0,0,3.6236,3.6305,3.6389,3.6454,3.6552,3.6603,3.6622,3.6726,3.6763,3.687,3.6899,3.6971,3.7115,3.7178,3.7228,3.7318,3.7335,3.7343,3.7368,3.7423,3.7431,3.7438,3.7467,3.7477,3.7351,3.7351,3.7351,0,3.6243,3.6372,3.643,3.6516,3.6572,3.6611,3.6695,3.6754,3.6873,3.691,3.6902,3.7081,3.7145,3.7266,3.7287,3.7328,3.735,3.7331,3.7425,3.7433,3.7441,3.7469,3.748,3.7351,3.7351,3.7351,3.7351,0,3.6374,3.6462,3.6518,3.6633,3.6695,3.678,3.6848,3.6903,3.6932,3.6982,3.7087,3.7165,3.7262,3.7293,3.7323,3.7417,3.741,3.7413,3.7398,3.745,3.7477,3.7489,3.7351,3.7351,3.7351,3.7351,0,0,3.6437,3.658,3.6599,3.665,3.6758,3.6826,3.691,3.7006,3.7051,3.713,3.72,3.7319,3.7321,3.7378,3.7413,3.7462,3.7524,3.7459,3.7461,3.7466,3.7628,3.7624,3.7636,3.7536,3.7538,3.754,3.762,0,3.652,3.6675,3.6727,3.6853,3.6933,3.6968,3.7041,3.7113,3.7161,3.7233,3.7285,3.7367,3.7366,3.74,3.7449,3.7506,3.7557,3.7501,3.7598,3.7601,3.7574,3.7651,3.7649,3.7721,3.7631,3.7633,3.7634,0,3.664,3.6721,3.6855,3.695,3.6985,3.705,3.714,3.7209,3.729,3.7321,3.7383,3.7414,3.7499,3.7478,3.7594,3.7555,3.7597,3.763,3.7634,3.7644,3.762,3.7662,3.7745,3.7755,3.7652,3.7651,3.765,0,3.6668,3.6811,3.6909,3.6951,3.7065,3.7109,3.7158,3.7237,3.729,3.7367,3.7401,3.7487,3.7533,3.7597,3.7648,3.7629,3.7758,3.7743,3.7783,3.7782,3.7809,3.7806,3.7898,3.7838,3.7838,3.7838,3.7837,0,3.6755,3.6835,3.6922,3.6983,3.7071,3.7129,3.7214,3.7265,3.7334,3.7402,3.7438,3.75,3.7565,3.7634,3.7675,3.7762,3.7783,3.7808,3.7818,3.7805,3.7801,3.7833,3.7828,3.7841,3.784,3.7839,3.7839,0,3.6802,3.6865,3.6973,3.7071,3.7097,3.7158,3.7241,3.7298,3.7346,3.7431,3.7454,3.7529,3.7612,3.767,3.7777,3.7803,3.7897,3.7907,3.787,3.7875,3.7911,3.7906,3.8025,3.8042,3.7972,3.7972,3.7973,0,3.6854,3.6916,3.702,3.7069,3.7118,3.7196,3.7249,3.7307,3.736,3.7455,3.75,3.7585,3.7657,3.7787,3.7849,3.793,3.794,3.7976,3.7953,3.7936,3.7938,3.7933,3.7938,3.798,3.798,3.7981,3.7981,0,3.6937,3.6963,3.7041,3.7127,3.719,3.7261,3.7332,3.7369,3.7437,3.7495,3.7581,3.7637,3.7745,3.7828,3.7913,3.796,3.7981,3.7988,3.8001,3.7988,3.7963,3.7974,3.7878,3.7985,3.7985,3.7984,3.7984,3.7984,3.6986,3.7042,3.7123,3.7206,3.7265,3.7329,3.7387,3.7442,3.7515,3.7609,3.7637,3.7725,3.7799,3.7917,3.7964,3.8032,3.8029,3.8049,3.8053,3.8057,3.8055,3.7953,3.8048,3.8048,3.8048,3.8048,3.8048,0,3.7069,3.7122,3.7198,3.7296,3.736,3.7375,3.7453,3.7505,3.7583,3.7652,3.7721,3.7817,3.7896,3.7963,3.8045,3.8085,3.8096,3.8104,3.8101,3.8111,3.8055,3.8034,3.8094,3.8094,3.8094,3.8094,3.8094,3.8094,3.712,3.7213,3.7249,3.737,3.7422,3.751,3.7553,3.761,3.7665,3.7772,3.7838,3.7882,3.7948,3.8034,3.8106,3.8124,3.8151,3.8156,3.8175,3.8121,3.8116,3.811,3.8091,3.8162,3.8162,3.8226,3.8227,3.8227]}]]